Stündliche Wetter Juayùa

Heute, 7 März, Sonntag

Zeit Temperatur Niederschläge Wind Luftdruck Luftfeuchtigkeit
00:00 +18°C° 0 mm 2 m/S 667 mmHg 75%
01:00 +18°C° 0 mm 2 m/S 667 mmHg 76%
02:00 +18°C° 0 mm 2 m/S 667 mmHg 76%
03:00 +17°C° 0 mm 2 m/S 667 mmHg 76%
04:00 +17°C° 0 mm 2 m/S 667 mmHg 77%
05:00 +17°C° 0 mm 2 m/S 667 mmHg 77%
06:00 +17°C° 0 mm 2 m/S 666 mmHg 81%
07:00 +19°C° 0 mm 2 m/S 668 mmHg 69%
08:00 +23°C° 0 mm 2 m/S 669 mmHg 57%
09:00 +26°C° 0 mm 3 m/S 670 mmHg 45%
10:00 +28°C° 0 mm 3 m/S 670 mmHg 41%
11:00 +29°C° 0 mm 3 m/S 670 mmHg 36%
12:00 +31°C° 0 mm 3 m/S 670 mmHg 32%
13:00 +31°C° 0 mm 3 m/S 669 mmHg 33%
14:00 +31°C° 0 mm 3 m/S 669 mmHg 34%
15:00 +31°C° 0 mm 3 m/S 668 mmHg 35%
16:00 +28°C° 0 mm 3 m/S 668 mmHg 42%
17:00 +26°C° 0 mm 3 m/S 668 mmHg 50%
18:00 +24°C° 0 mm 3 m/S 668 mmHg 58%
19:00 +23°C° 0 mm 2 m/S 668 mmHg 61%
20:00 +21°C° 0 mm 2 m/S 668 mmHg 65%
21:00 +20°C° 0 mm 2 m/S 669 mmHg 69%
22:00 +19°C° 0 mm 3 m/S 669 mmHg 71%
23:00 +19°C° 0 mm 3 m/S 668 mmHg 72%

Morgen, 8 März, Montag

Zeit Temperatur Niederschläge Wind Luftdruck Luftfeuchtigkeit
00:00 +19°C° 0 mm 3 m/S 668 mmHg 74%
01:00 +18°C° 0 mm 3 m/S 668 mmHg 76%
02:00 +18°C° 0 mm 3 m/S 667 mmHg 79%
03:00 +17°C° 0 mm 2 m/S 667 mmHg 81%
04:00 +17°C° 0 mm 2 m/S 667 mmHg 82%
05:00 +17°C° 0 mm 2 m/S 668 mmHg 82%
06:00 +17°C° 0 mm 2 m/S 668 mmHg 83%
07:00 +19°C° 0 mm 3 m/S 669 mmHg 71%
08:00 +22°C° 0 mm 3 m/S 670 mmHg 59%
09:00 +26°C° 0 mm 4 m/S 671 mmHg 46%
10:00 +27°C° 0 mm 5 m/S 671 mmHg 42%
11:00 +29°C° 0 mm 5 m/S 671 mmHg 38%
12:00 +30°C° 0 mm 5 m/S 671 mmHg 34%
13:00 +30°C° 0 mm 6 m/S 670 mmHg 35%
14:00 +29°C° 0 mm 6 m/S 670 mmHg 35%
15:00 +29°C° 0 mm 6 m/S 669 mmHg 35%
16:00 +27°C° 0 mm 5 m/S 669 mmHg 39%
17:00 +26°C° 0 mm 5 m/S 669 mmHg 44%
18:00 +23°C° 0 mm 4 m/S 669 mmHg 49%
19:00 +22°C° 0 mm 4 m/S 669 mmHg 54%
20:00 +20°C° 0 mm 3 m/S 669 mmHg 60%
21:00 +19°C° 0 mm 3 m/S 670 mmHg 65%
22:00 +19°C° 0 mm 3 m/S 669 mmHg 67%
23:00 +18°C° 0 mm 3 m/S 669 mmHg 69%

übermorgen, 9 März, Dienstag

Zeit Temperatur Niederschläge Wind Luftdruck Luftfeuchtigkeit
00:00 +18°C° 0 mm 3 m/S 669 mmHg 72%
01:00 +17°C° 0 mm 3 m/S 669 mmHg 73%
02:00 +17°C° 0 mm 3 m/S 668 mmHg 75%
03:00 +17°C° 0 mm 2 m/S 668 mmHg 76%
04:00 +17°C° 0 mm 3 m/S 668 mmHg 76%
05:00 +16°C° 0 mm 3 m/S 668 mmHg 77%
06:00 +16°C° 0 mm 3 m/S 668 mmHg 77%
07:00 +19°C° 0 mm 3 m/S 669 mmHg 67%
08:00 +21°C° 0 mm 4 m/S 670 mmHg 57%
09:00 +25°C° 0 mm 5 m/S 671 mmHg 48%
10:00 +26°C° 0 mm 5 m/S 671 mmHg 42%
11:00 +28°C° 0 mm 5 m/S 671 mmHg 37%
12:00 +29°C° 0 mm 5 m/S 671 mmHg 31%
13:00 +30°C° 0 mm 5 m/S 670 mmHg 31%
14:00 +30°C° 0 mm 5 m/S 669 mmHg 31%
15:00 +30°C° 0 mm 5 m/S 668 mmHg 31%
16:00 +28°C° 0 mm 5 m/S 668 mmHg 36%
17:00 +26°C° 0 mm 4 m/S 668 mmHg 42%
18:00 +24°C° 0 mm 3 m/S 668 mmHg 47%
19:00 +22°C° 0 mm 3 m/S 668 mmHg 52%
20:00 +20°C° 0 mm 4 m/S 669 mmHg 57%
21:00 +19°C° 0 mm 4 m/S 669 mmHg 61%
22:00 +19°C° 0 mm 3 m/S 669 mmHg 65%
23:00 +18°C° 0 mm 3 m/S 668 mmHg 68%

10 März, Mittwoch

Zeit Temperatur Niederschläge Wind Luftdruck Luftfeuchtigkeit
00:00 +18°C° 0 mm 3 m/S 668 mmHg 71%
01:00 +17°C° 0 mm 3 m/S 668 mmHg 73%
02:00 +17°C° 0 mm 3 m/S 667 mmHg 75%
03:00 +16°C° 0 mm 3 m/S 667 mmHg 77%
04:00 +16°C° 0 mm 3 m/S 667 mmHg 78%
05:00 +16°C° 0 mm 3 m/S 667 mmHg 78%
06:00 +16°C° 0 mm 3 m/S 667 mmHg 79%
07:00 +18°C° 0 mm 3 m/S 668 mmHg 68%
08:00 +21°C° 0 mm 3 m/S 669 mmHg 58%
09:00 +24°C° 0 mm 3 m/S 670 mmHg 47%
10:00 +26°C° 0 mm 3 m/S 670 mmHg 42%
11:00 +28°C° 0 mm 3 m/S 670 mmHg 37%
12:00 +30°C° 0 mm 3 m/S 670 mmHg 32%
13:00 +31°C° 0 mm 3 m/S 669 mmHg 32%
14:00 +31°C° 0 mm 3 m/S 669 mmHg 31%
15:00 +31°C° 0 mm 3 m/S 668 mmHg 31%
16:00 +29°C° 0 mm 2 m/S 667 mmHg 38%
17:00 +26°C° 0 mm 2 m/S 667 mmHg 46%
18:00 +24°C° 0 mm 2 m/S 667 mmHg 53%
19:00 +21°C° 0 mm 2 m/S 667 mmHg 56%
20:00 +20°C° 0 mm 2 m/S 667 mmHg 59%
21:00 +19°C° 0 mm 2 m/S 667 mmHg 62%
22:00 +18°C° 0 mm 2 m/S 667 mmHg 62%
23:00 +18°C° 0 mm 2 m/S 667 mmHg 63%

11 März, Donnerstag

Zeit Temperatur Niederschläge Wind Luftdruck Luftfeuchtigkeit
00:00 +18°C° 0 mm 2 m/S 667 mmHg 63%
01:00 +17°C° 0 mm 2 m/S 667 mmHg 65%
02:00 +17°C° 0 mm 2 m/S 666 mmHg 66%
03:00 +16°C° 0 mm 2 m/S 666 mmHg 68%
04:00 +16°C° 0 mm 2 m/S 666 mmHg 70%
05:00 +15°C° 0 mm 2 m/S 666 mmHg 72%
06:00 +15°C° 0 mm 2 m/S 666 mmHg 73%
07:00 +18°C° 0 mm 2 m/S 668 mmHg 60%
08:00 +23°C° 0 mm 2 m/S 669 mmHg 46%
09:00 +26°C° 0 mm 1 m/S 670 mmHg 32%
10:00 +28°C° 0 mm 2 m/S 670 mmHg 30%
11:00 +30°C° 0 mm 2 m/S 670 mmHg 27%
12:00 +32°C° 0 mm 2 m/S 670 mmHg 25%
13:00 +31°C° 0 mm 3 m/S 669 mmHg 27%
14:00 +31°C° 0 mm 3 m/S 668 mmHg 29%
15:00 +31°C° 0 mm 3 m/S 667 mmHg 31%
16:00 +28°C° 0 mm 2 m/S 667 mmHg 41%
17:00 +25°C° 0 mm 2 m/S 666 mmHg 52%
18:00 +23°C° 0 mm 1 m/S 666 mmHg 62%
19:00 +22°C° 0 mm 1 m/S 666 mmHg 66%
20:00 +21°C° 0 mm 1 m/S 666 mmHg 70%
21:00 +19°C° 0 mm 1 m/S 667 mmHg 74%
22:00 +19°C° 0 mm 1 m/S 667 mmHg 74%
23:00 +19°C° 0 mm 1 m/S 667 mmHg 75%

12 März, Freitag

Zeit Temperatur Niederschläge Wind Luftdruck Luftfeuchtigkeit
00:00 +19°C° 0 mm 1 m/S 667 mmHg 76%
01:00 +17°C° 0 mm 2 m/S 667 mmHg 77%
02:00 +17°C° 0 mm 2 m/S 666 mmHg 79%
03:00 +17°C° 0 mm 2 m/S 666 mmHg 81%
04:00 +17°C° 0 mm 2 m/S 666 mmHg 81%
05:00 +16°C° 0 mm 2 m/S 666 mmHg 81%
06:00 +16°C° 0 mm 2 m/S 666 mmHg 81%
07:00 +21°C° 0 mm 1 m/S 668 mmHg 69%
08:00 +24°C° 0 mm 1 m/S 669 mmHg 56%
09:00 +27°C° 0 mm 1 m/S 670 mmHg 44%
10:00 +29°C° 0 mm 2 m/S 670 mmHg 40%
11:00 +30°C° 0 mm 2 m/S 670 mmHg 37%
12:00 +32°C° 0 mm 2 m/S 670 mmHg 33%
13:00 +31°C° 0 mm 3 m/S 669 mmHg 36%
14:00 +30°C° 0 mm 3 m/S 668 mmHg 39%
15:00 +29°C° 0 mm 3 m/S 667 mmHg 42%
16:00 +27°C° 0 mm 2 m/S 667 mmHg 49%
17:00 +25°C° 0 mm 2 m/S 666 mmHg 56%
18:00 +23°C° 0 mm 1 m/S 666 mmHg 64%
19:00 +22°C° 0 mm 1 m/S 666 mmHg 69%
20:00 +21°C° 0 mm 1 m/S 666 mmHg 75%
21:00 +19°C° 0 mm 1 m/S 666 mmHg 80%
22:00 +20°C° 0 mm 1 m/S 667 mmHg 78%
23:00 +20°C° 0 mm 1 m/S 667 mmHg 76%
Mehr zeigen

Wir brauchen deine Erlaubnis

Meteoprog und unser Service Anbieter werden persönliche Daten aufbewahren, so wie Cookies, Geräte Bezeichnung oder ähnliche Technologien von deinem Gerät und Prozess, so wie Persönliche Daten Inhalte und Werbungen, genauso wie social Media und den Verkehr zu analysieren.

  • Aufbewahrung und/oder Zugang zu deiner Geräte Informationen.

    Cookies, Geräte Bezeichnung oder andere Informationen, können aufbewahrt oder Zugang zu deinem Gerät erhalten, für den Grund, der oben angegeben wird.

  • Personalisierte Werbung und Inhalte, Messungen, Einblick in das Publikum und Produkt Entwicklung.

    Werbungen und Inhalte können personalisiert werden, basierend auf ein Profil. Mehr Daten können besser personalisierte Werbungen und Inhalte hinzufügen. Werbung und Inhalte können gezeigt und gemessen werden. Einblicke über das Publikum, welche die Werbung gesehen haben und den Inhalt, können abgeleitet werden. So wie Daten können genutzt werden, um es zu verbessern oder die Benutzer Erfahrung zu verbessern das System und die Software.

Wenn du “Ich stimme zu” klickst, erlaubst du uns, die Cookies zu benutzen die Geräte Bezeichnung, den Web oder ähnliche Technologien zu benutzen. Deine Settings, können in deinem Gerät bei deinem Browser geändert werden.

Für den bestimmten Zweck, berechtigten Interessen beruhen darauf, mehr als auf den Inhalt. Du kannst mehr darüber in unseren Privaten und Cookie Politik lesen.